Weather History for KLXV - April, 2012

Change the Weather History Date:

Saturday, April 14, 2012

  Actual Average Record
Temperature  
Mean Temperature 30 °F -  
Max Temperature 38 °F 43 °F - ()
Min Temperature 21 °F 18 °F - ()
Degree Days  
Heating Degree Days 35 35  
Month to date heating degree days 414 507  
Since 1 July heating degree days 9048 9490  
Cooling Degree Days 0 0  
Month to date cooling degree days 0 0  
Year to date cooling degree days 0 0  
Moisture  
Dew Point 18 °F    
Average Humidity 57    
Maximum Humidity 88    
Minimum Humidity 25    
Precipitation  
Precipitation 0.09 in 0.04 in - ()
Month to date precipitation 0.13 0.50  
Year to date precipitation 2.53 2.76  
Sea Level Pressure  
Sea Level Pressure 29.52 in    
Wind  
Wind Speed 8 mph (WSW)    
Max Wind Speed 26 mph    
Max Gust Speed 31 mph    
Visibility 6 miles    
Events Fog , Snow    
T = Trace of Precipitation, MM = Missing Value Source: NWS Daily Summary

Daily Weather History Graph

Daily Weather History Graph

Search for Another Location

Airport or City:

Trip Planner

Search our weather history database for the weather conditions in past years. The results will help you decide how hot, cold, wet, or windy it might be!

Date:

Astronomy

Apr. 14, 2012 Rise Set
Actual Time 6:29 AM MDT 7:42 PM MDT
Civil Twilight 6:01 AM MDT 8:10 PM MDT
Nautical Twilight 5:28 AM MDT 8:43 PM MDT
Astronomical Twilight 4:53 AM MDT 9:17 PM MDT
Moon 2:51 AM MDT (4/14) 1:40 PM MDT (4/14)
Length of Visible Light 14h 08m
Length of Day
13h 13m
Last Quarter, 36% of the Moon is Illuminated
Apr 14
Last Quarter
Apr 21
New
Apr 29
First Quarter
May 5
Full
May 12
Last Quarter

Hourly Weather History & Observations

Time (MDT) Temp. Windchill Dew Point Humidity Pressure Visibility Wind Dir Wind Speed Gust Speed Precip Events Conditions
12:53 AM 28.0 °F - 18.0 °F 66% 29.55 in 10.0 mi Calm Calm - N/A   Overcast
1:53 AM 27.0 °F - 18.0 °F 69% 29.55 in 10.0 mi Calm Calm - N/A   Overcast
2:53 AM 26.1 °F - 19.0 °F 75% 29.54 in 10.0 mi Calm Calm - N/A   Mostly Cloudy
3:53 AM 24.1 °F - 16.0 °F 71% 29.53 in 10.0 mi Calm Calm - N/A   Mostly Cloudy
4:53 AM 24.1 °F 19.7 °F 14.0 °F 65% 29.51 in 10.0 mi SSW 3.5 mph - N/A   Mostly Cloudy
5:53 AM 26.1 °F 21.9 °F 14.0 °F 60% 29.49 in 10.0 mi SSW 3.5 mph - N/A   Overcast
6:53 AM 24.1 °F 18.2 °F 15.1 °F 69% 29.50 in 10.0 mi South 4.6 mph - N/A   Overcast
7:53 AM 27.0 °F 19.5 °F 15.1 °F 61% 29.50 in 10.0 mi SW 6.9 mph - N/A   Overcast
8:53 AM 30.9 °F 19.8 °F 12.0 °F 46% 29.45 in 10.0 mi SSW 16.1 mph 21.9 mph N/A   Mostly Cloudy
9:53 AM 30.9 °F 19.8 °F 10.9 °F 43% 29.43 in 10.0 mi SSW 16.1 mph 23.0 mph N/A   Overcast
10:53 AM 33.1 °F 20.6 °F 10.9 °F 40% 29.44 in 10.0 mi SSW 23.0 mph 28.8 mph 0.00 in   Mostly Cloudy
11:53 AM 35.1 °F 24.1 °F 7.0 °F 31% 29.40 in 10.0 mi SSW 19.6 mph 27.6 mph N/A   Clear
12:53 PM 37.9 °F 30.0 °F 6.1 °F 27% 29.36 in 10.0 mi WSW 12.7 mph 29.9 mph N/A   Mostly Cloudy
1:53 PM 37.0 °F 28.5 °F 5.0 °F 26% 29.34 in 10.0 mi SW 13.8 mph 18.4 mph N/A   Scattered Clouds
2:53 PM 33.1 °F 23.0 °F 10.0 °F 38% 29.38 in 10.0 mi West 15.0 mph 18.4 mph N/A   Overcast
3:39 PM 28.4 °F 18.5 °F 19.4 °F 69% 29.60 in 2.5 mi South 11.5 mph - 0.00 in Snow Light Snow
3:46 PM 28.4 °F 23.3 °F 19.4 °F 69% 29.60 in 3.0 mi South 4.6 mph - 0.00 in Snow Light Snow
3:53 PM 30.0 °F 23.2 °F 17.1 °F 59% 29.43 in 9.0 mi South 6.9 mph - 0.00 in   Overcast
4:53 PM 28.9 °F 21.1 °F 18.0 °F 64% 29.43 in 10.0 mi NNE 8.1 mph - N/A   Overcast
5:25 PM 26.6 °F 16.2 °F 19.4 °F 74% 29.61 in 1.8 mi West 11.5 mph 17.3 mph 0.00 in Snow Light Snow
5:28 PM 26.6 °F 16.2 °F 21.2 °F 80% 29.61 in 0.8 mi WSW 11.5 mph 17.3 mph 0.00 in Snow Light Snow
5:41 PM 24.8 °F - 23.0 °F 93% 29.61 in 0.2 mi Calm Calm - 0.01 in Fog , Snow Snow
5:49 PM 24.8 °F 17.9 °F 23.0 °F 93% 29.62 in 0.5 mi SE 5.8 mph - 0.02 in Fog , Snow Snow
5:53 PM 25.0 °F 20.7 °F 23.0 °F 92% 29.47 in 0.8 mi Variable 3.5 mph - 0.02 in Snow Light Snow
6:11 PM 24.8 °F 17.9 °F 21.2 °F 86% 29.62 in 0.8 mi South 5.8 mph - 0.01 in Snow Light Snow
6:21 PM 24.8 °F 17.9 °F 21.2 °F 86% 29.62 in 0.2 mi SSE 5.8 mph - 0.02 in Fog , Snow Heavy Snow
6:37 PM 24.8 °F 20.5 °F 21.2 °F 86% 29.61 in 0.2 mi East 3.5 mph - 0.04 in Fog , Snow Snow
6:45 PM 24.8 °F 19.1 °F 21.2 °F 86% 29.60 in 0.5 mi NE 4.6 mph - 0.05 in Fog , Snow Snow
6:53 PM 24.1 °F 17.0 °F 21.9 °F 91% 29.48 in 0.8 mi ENE 5.8 mph - 0.05 in Snow Light Snow
7:04 PM 24.8 °F 20.5 °F 21.2 °F 86% 29.60 in 2.5 mi NE 3.5 mph - 0.00 in Snow Light Snow
7:12 PM 24.8 °F 19.1 °F 21.2 °F 86% 29.60 in 5.0 mi NE 4.6 mph - 0.00 in Snow Light Snow
7:53 PM 24.1 °F 19.7 °F 21.0 °F 88% 29.44 in 10.0 mi North 3.5 mph - 0.00 in   Mostly Cloudy
8:53 PM 25.0 °F 17.1 °F 19.9 °F 81% 29.43 in 10.0 mi NNE 6.9 mph - N/A   Overcast
9:53 PM 24.1 °F 18.2 °F 21.0 °F 88% 29.43 in 10.0 mi North 4.6 mph - N/A   Overcast
10:37 PM 24.8 °F 16.9 °F 21.2 °F 86% 29.61 in 4.0 mi NNE 6.9 mph - 0.00 in Snow Light Snow
10:50 PM 24.8 °F 19.1 °F 21.2 °F 86% 29.61 in 6.0 mi North 4.6 mph - 0.00 in Snow Light Snow
10:53 PM 24.1 °F - 21.0 °F 88% 29.42 in 6.0 mi Calm Calm - 0.00 in Snow Light Snow
11:02 PM 24.8 °F 19.1 °F 21.2 °F 86% 29.61 in 8.0 mi NNW 4.6 mph - 0.00 in   Overcast
11:21 PM 23.0 °F 11.7 °F 21.2 °F 93% 29.61 in 1.8 mi NNW 11.5 mph - 0.00 in Snow Light Snow
11:30 PM 23.0 °F 13.9 °F 19.4 °F 86% 29.60 in 3.0 mi NNW 8.1 mph - 0.00 in Snow Light Snow
11:50 PM 23.0 °F 12.4 °F 19.4 °F 86% 29.60 in 1.8 mi NNW 10.4 mph - 0.00 in Snow Light Snow
11:53 PM 23.0 °F 10.6 °F 19.9 °F 88% 29.41 in 1.2 mi NNW 13.8 mph - 0.00 in Snow Light Snow